Find OPS 7613 P/L 5

NORAD ID: 4247 Int'l Des: 1969-082 Owner: NRO/NRL Country: US operational
LEOCIRCULAR

当前视图

正在加载3D地球...

About OPS 7613 P/L 5

OPS 7613 P/L 5 (NORAD 4247) is a satellite by NRO/NRL of US. It operates in LEO, CIRCULAR orbit

即将过境

Passes for default location (London). Set your location on the main map for personalized predictions.

高度历史

Loading altitude history...

两行轨道根数

1 4247U 69082F 26195.01138959 .00000021 00000-0 53623-4 0 9997
2 4247 70.0143 45.1676 0017926 94.5501 265.7653 13.95996889890156
Epoch: Jul 14, 2026 • Age: 17 hours

当前状态

高度 924.1 km
远地点 / 近地点 N/A
速度 7.39 km/s
星下点 -26.98°S, 159.54°W
类型 other

Most Searched